Вернуться в каталог

STARLINK-36174

АктивенСвязьVLEO
NORAD 67166·PAYLOAD·🇺🇸 United States

Запущен Dec 17, 2025 с Cape Canaveral Space Force Station

Loading…

Ближайшие Пролёты (ближайшие 24 часа)

TLE

СвежийSource: CelesTrak SupGP

Эпоха: Sep 14, 2026, 23:22 UTC

1 67166C 25303D   26257.97409722  .00007352  00000+0  26633-3 0  2577
2 67166  43.0030 321.5901 0001383 268.1175 158.4474 15.27571978    10

Отслеживайте STARLINK-36174 в реальном времени с AllMySat

Download on the App Store